Macon, GA

4:20 PM EDT on August 25, 2016 (GMT -0400)
Middle Georgia Regional

Weather History for KMCN - May, 2014

Change the Weather History Date:

Wednesday, May 14, 2014

  Actual Average Record
Temperature  
Mean Temperature 75 °F 71 °F  
Max Temperature 87 °F 84 °F 96 °F (1967)
Min Temperature 62 °F 59 °F 42 °F (1997)
Degree Days  
Heating Degree Days 0 0  
Month to date heating degree days 7 11  
Since 1 July heating degree days 2615 2318  
Cooling Degree Days 10 7  
Month to date cooling degree days 90 73  
Year to date cooling degree days 143 157  
Growing Degree Days 24 (Base 50)    
Moisture  
Dew Point 66 °F    
Average Humidity 73    
Maximum Humidity 100    
Minimum Humidity 45    
Precipitation  
Precipitation 1.23 in 0.09 in 3.57 in (1976)
Month to date precipitation 1.35 1.11  
Year to date precipitation 20.57 17.22  
Sea Level Pressure  
Sea Level Pressure 30.04 in    
Wind  
Wind Speed 6 mph (SE)    
Max Wind Speed 31 mph    
Max Gust Speed 41 mph    
Visibility 6 miles    
Events Fog , Rain , Thunderstorm    
T = Trace of Precipitation, MM = Missing Value Source: NWS Daily Summary

Daily Weather History Graph

Daily Weather History Graph

Search for Another Location

Airport or City:

Trip Planner

Search our weather history database for the weather conditions in past years. The results will help you decide how hot, cold, wet, or windy it might be!

Date:

Astronomy

May. 14, 2014 Rise Set
Actual Time 6:36 AM EDT 8:25 PM EDT
Civil Twilight 6:09 AM EDT 8:52 PM EDT
Nautical Twilight 5:36 AM EDT 9:25 PM EDT
Astronomical Twilight 5:02 AM EDT 10:00 PM EDT
Moon 8:31 PM EDT (5/14) 6:31 AM EDT (5/14)
Length of Visible Light 14h 43m
Length of Day
13h 49m
Full, 100% of the Moon is Illuminated
May 14
Full
May 14
Full
May 21
Last Quarter
May 28
New
Jun 5
First Quarter

Hourly Weather History & Observations

Time (EDT) Temp. Heat Index Dew Point Humidity Pressure Visibility Wind Dir Wind Speed Gust Speed Precip Events Conditions
12:53 AM 71.1 °F - 64.0 °F 78% 30.11 in 10.0 mi SE 8.1 mph - N/A   Clear
1:53 AM 69.1 °F - 64.0 °F 84% 30.11 in 10.0 mi South 3.5 mph - N/A   Clear
2:53 AM 68.0 °F - 64.9 °F 90% 30.09 in 10.0 mi SSE 3.5 mph - N/A   Clear
3:53 AM 64.9 °F - 63.0 °F 93% 30.10 in 9.0 mi Calm Calm - N/A   Clear
4:53 AM 63.0 °F - 63.0 °F 100% 30.10 in 6.0 mi Calm Calm - N/A   Clear
5:53 AM 62.1 °F - 62.1 °F 100% 30.10 in 2.5 mi East 3.5 mph - N/A   Clear
6:11 AM 62.6 °F - 62.6 °F 100% 30.10 in 4.0 mi ENE 4.6 mph - N/A   Clear
6:33 AM 62.6 °F - 62.6 °F 100% 30.10 in 1.8 mi East 3.5 mph - N/A   Partly Cloudy
6:37 AM 62.6 °F - 62.6 °F 100% 30.10 in 0.8 mi East 3.5 mph - N/A   Mist
6:44 AM 62.6 °F - 62.6 °F 100% 30.10 in 0.5 mi Calm Calm - N/A Fog Fog
6:53 AM 63.0 °F - 63.0 °F 100% 30.09 in 0.5 mi Calm Calm - N/A Fog Fog
7:05 AM 64.4 °F - 64.4 °F 100% 30.10 in 1.8 mi East 3.5 mph - N/A   Overcast
7:18 AM 66.2 °F - 66.2 °F 100% 30.10 in 2.0 mi Calm Calm - N/A   Overcast
7:53 AM 66.9 °F - 66.9 °F 100% 30.11 in 2.5 mi Calm Calm - N/A   Overcast
8:21 AM 68.0 °F - 66.2 °F 94% 30.12 in 3.0 mi SE 4.6 mph - N/A   Overcast
8:53 AM 71.1 °F - 68.0 °F 90% 30.10 in 6.0 mi ESE 6.9 mph - N/A   Mostly Cloudy
9:53 AM 73.0 °F - 66.9 °F 81% 30.11 in 8.0 mi South 6.9 mph - N/A   Mostly Cloudy
10:01 AM 73.4 °F - 66.2 °F 78% 30.12 in 9.0 mi South 8.1 mph - N/A   Mostly Cloudy
10:35 AM 75.2 °F - 66.2 °F 73% 30.12 in 10.0 mi SSE 6.9 mph - N/A   Mostly Cloudy
10:53 AM 78.8 °F - 68.0 °F 69% 30.12 in 10.0 mi SE 11.5 mph 17.3 mph N/A   Mostly Cloudy
11:30 AM 78.8 °F - 66.2 °F 65% 30.10 in 10.0 mi SSE 11.5 mph - N/A   Mostly Cloudy
11:53 AM 81.0 °F 83.0 °F 66.0 °F 60% 30.09 in 10.0 mi SSE 10.4 mph 16.1 mph N/A   Scattered Clouds
12:53 PM 84.0 °F 85.8 °F 64.9 °F 53% 30.07 in 10.0 mi SE 8.1 mph - N/A   Partly Cloudy
1:53 PM 86.0 °F 86.8 °F 63.0 °F 46% 30.03 in 10.0 mi SSE 11.5 mph 21.9 mph N/A   Partly Cloudy
2:53 PM 86.0 °F 87.3 °F 64.0 °F 48% 30.00 in 10.0 mi SSE 10.4 mph - N/A   Scattered Clouds
3:53 PM 84.0 °F 85.4 °F 64.0 °F 51% 29.96 in 10.0 mi ESE 10.4 mph - N/A   Partly Cloudy
4:53 PM 84.2 °F 86.6 °F 66.2 °F 55% 29.94 in 10.0 mi East 9.2 mph - N/A   Scattered Clouds
5:31 PM 78.8 °F - 68.0 °F 69% 29.95 in 2.0 mi SE 28.8 mph 41.4 mph 0.00 in Rain Light Rain
5:33 PM 73.4 °F - 69.8 °F 88% 29.95 in 0.8 mi SE 26.5 mph 41.4 mph 0.00 in Rain Heavy Rain
5:41 PM 69.8 °F - 68.0 °F 94% 29.95 in 0.2 mi SE 17.3 mph 39.1 mph 0.30 in Fog , Rain Heavy Rain
5:44 PM 69.8 °F - 68.0 °F 94% 29.95 in 0.5 mi SE 20.7 mph 36.8 mph 0.37 in Fog , Rain , Thunderstorm Thunderstorms and Rain
5:50 PM 69.8 °F - 68.0 °F 94% 29.95 in 2.5 mi ESE 9.2 mph 28.8 mph 0.41 in Rain , Thunderstorm Thunderstorms and Rain
5:53 PM 69.1 °F - 68.0 °F 96% 29.94 in 3.0 mi ESE 6.9 mph - 0.42 in Rain Light Rain
6:26 PM 69.8 °F - 68.0 °F 94% 29.99 in 7.0 mi Variable 6.9 mph - 0.00 in Rain Light Rain
6:35 PM 69.8 °F - 68.0 °F 94% 29.99 in 3.0 mi Variable 6.9 mph 16.1 mph 0.02 in Rain , Thunderstorm Thunderstorms and Rain
6:53 PM 69.1 °F - 68.0 °F 96% 29.99 in 4.0 mi SE 8.1 mph - 0.06 in Rain , Thunderstorm Thunderstorms and Rain
7:11 PM 69.8 °F - 68.0 °F 94% 30.00 in 4.0 mi SE 4.6 mph - 0.02 in Rain , Thunderstorm Thunderstorms and Rain
7:42 PM 69.8 °F - 68.0 °F 94% 29.99 in 3.0 mi ESE 8.1 mph - 0.11 in Rain Rain
7:53 PM 69.1 °F - 68.0 °F 96% 29.98 in 3.0 mi ESE 5.8 mph - 0.15 in Rain Rain
8:10 PM 69.8 °F - 69.8 °F 100% 29.99 in 7.0 mi SE 6.9 mph - 0.05 in Rain Light Rain
8:53 PM 70.0 °F - 69.1 °F 97% 29.98 in 10.0 mi SSE 5.8 mph - 0.06 in   Overcast
9:53 PM 70.0 °F - 70.0 °F 100% 29.98 in 10.0 mi SSE 8.1 mph - N/A   Mostly Cloudy
10:09 PM 69.8 °F - 69.8 °F 100% 29.99 in 10.0 mi SE 6.9 mph - N/A   Mostly Cloudy
10:31 PM 69.8 °F - 69.8 °F 100% 29.99 in 10.0 mi SE 3.5 mph - N/A   Scattered Clouds
10:53 PM 70.0 °F - 70.0 °F 100% 29.99 in 10.0 mi SE 4.6 mph - N/A   Overcast
11:53 PM 71.1 °F - 69.1 °F 93% 29.97 in 10.0 mi South 9.2 mph - 0.00 in Rain Light Rain